Deering, AK

1:46 PM AKDT on March 30, 2017 (GMT -0800)
Deering (New)

Weather History for PADE - October, 2011

Change the Weather History Date:

Tuesday, October 11, 2011

  Actual Average (PAOT) Record (PAOT)
Temperature  
Mean Temperature 32 °F -  
Max Temperature 36 °F 32 °F 47 °F (2009)
Min Temperature 28 °F 22 °F 5 °F (1970)
Degree Days  
Heating Degree Days 33    
Moisture  
Dew Point 21 °F    
Average Humidity 65    
Maximum Humidity 75    
Minimum Humidity 54    
Precipitation  
Precipitation 0.00 in - - ()
Sea Level Pressure  
Sea Level Pressure 29.91 in    
Wind  
Wind Speed 6 mph (SSW)    
Max Wind Speed 17 mph    
Max Gust Speed -    
Visibility 10 miles    
Events      
Averages and records for this station are not official NWS values.
T = Trace of Precipitation, MM = Missing Value Source: NWS Daily Summary

Daily Weather History Graph

Daily Weather History Graph

Search for Another Location

Airport or City:

Trip Planner

Search our weather history database for the weather conditions in past years. The results will help you decide how hot, cold, wet, or windy it might be!

Date:

Astronomy

Oct. 11, 2011 Rise Set
Actual Time 9:34 AM AKDT 7:39 PM AKDT
Civil Twilight 8:42 AM AKDT 8:31 PM AKDT
Nautical Twilight 7:42 AM AKDT 9:30 PM AKDT
Astronomical Twilight 6:40 AM AKDT 10:32 PM AKDT
Moon 6:46 PM AKDT (10/11) 9:46 AM AKDT (10/11)
Length of Visible Light 11h 49m
Length of Day
10h 05m
Full, 100% of the Moon is Illuminated
Oct 11
Full
Oct 11
Full
Oct 19
Last Quarter
Oct 26
New
Nov 2
First Quarter

Hourly Weather History & Observations

Time (AKDT) Temp. Windchill Dew Point Humidity Pressure Visibility Wind Dir Wind Speed Gust Speed Precip Events Conditions
12:53 AM 30.0 °F 26.5 °F 21.0 °F 69% 29.87 in 10.0 mi South 3.5 mph - N/A   Overcast
1:53 AM 30.0 °F 25.2 °F 21.9 °F 72% 29.88 in 10.0 mi SSW 4.6 mph - N/A   Overcast
2:53 AM 30.0 °F 25.2 °F 21.0 °F 69% 29.88 in 10.0 mi SSW 4.6 mph - N/A   Overcast
3:53 AM 30.0 °F 26.5 °F 21.0 °F 69% 29.89 in 10.0 mi South 3.5 mph - N/A   Overcast
4:53 AM 30.0 °F 24.1 °F 21.0 °F 69% 29.89 in 10.0 mi SSW 5.8 mph - N/A   Overcast
5:53 AM 30.0 °F 23.2 °F 21.0 °F 69% 29.90 in 10.0 mi SSW 6.9 mph - N/A   Overcast
6:53 AM 28.9 °F 21.9 °F 21.0 °F 72% 29.90 in 10.0 mi SSW 6.9 mph - N/A   Overcast
7:53 AM 28.9 °F 21.9 °F 21.0 °F 72% 29.91 in 10.0 mi SSW 6.9 mph - N/A   Overcast
8:53 AM 30.0 °F 23.2 °F 19.9 °F 66% 29.91 in 10.0 mi SSW 6.9 mph - N/A   Overcast
9:53 AM 28.9 °F 21.9 °F 21.9 °F 75% 29.92 in 10.0 mi SSW 6.9 mph - N/A   Overcast
10:53 AM 30.0 °F 26.5 °F 21.0 °F 69% 29.93 in 10.0 mi SW 3.5 mph - N/A   Overcast
11:53 AM 32.0 °F 26.4 °F 21.0 °F 64% 29.93 in 10.0 mi SSW 5.8 mph - N/A   Overcast
12:53 PM 33.1 °F 26.9 °F 21.0 °F 61% 29.94 in 10.0 mi SSW 6.9 mph - N/A   Overcast
1:53 PM 33.1 °F 26.1 °F 21.9 °F 64% 29.94 in 10.0 mi SSW 8.1 mph - N/A   Overcast
2:53 PM 34.0 °F 26.0 °F 21.0 °F 59% 29.94 in 10.0 mi SSW 10.4 mph - N/A   Overcast
3:53 PM 35.1 °F 27.9 °F 19.9 °F 54% 29.94 in 10.0 mi SW 9.2 mph - N/A   Overcast
4:53 PM 36.0 °F 30.3 °F 21.0 °F 55% 29.93 in 10.0 mi SSW 6.9 mph - N/A   Overcast
5:53 PM 35.1 °F 31.0 °F 21.9 °F 59% 29.93 in 10.0 mi SSW 4.6 mph - N/A   Overcast
6:53 PM 34.0 °F 28.0 °F 23.0 °F 64% 29.92 in 10.0 mi SSE 6.9 mph - N/A   Overcast
7:53 PM 34.0 °F 26.6 °F 21.9 °F 61% 29.92 in 10.0 mi SSE 9.2 mph - N/A   Overcast
8:53 PM 33.1 °F 26.9 °F 21.9 °F 64% 29.91 in 10.0 mi SE 6.9 mph - N/A   Overcast
9:53 PM 33.1 °F 24.9 °F 21.9 °F 64% 29.90 in 10.0 mi SSE 10.4 mph - N/A   Overcast
11:53 PM 34.0 °F 23.4 °F 21.0 °F 59% 29.88 in 10.0 mi SE 17.3 mph - N/A   Overcast